TimeEDT,TemperatureF,Dew PointF,Humidity,Sea Level PressureIn,VisibilityMPH,Wind Direction,Wind SpeedMPH,Gust SpeedMPH,PrecipitationIn,Events,Conditions,WindDirDegrees,DateUTC
12:15 AM,30.2,10.4,44,30.17,10.0,West,16.1,21.9,N/A,,Clear,260,2013-04-04 04:15:00
12:35 AM,28.4,12.2,51,30.18,10.0,West,12.7,19.6,N/A,,Clear,260,2013-04-04 04:35:00
12:55 AM,28.4,12.2,51,30.19,10.0,West,11.5,17.3,N/A,,Clear,270,2013-04-04 04:55:00
1:15 AM,28.4,12.2,51,30.19,10.0,West,11.5,16.1,N/A,,Clear,260,2013-04-04 05:15:00
1:55 AM,28.4,12.2,51,30.19,10.0,West,11.5,-,N/A,,Clear,260,2013-04-04 05:55:00
2:15 AM,28.4,12.2,51,30.19,10.0,WSW,8.1,-,N/A,,Clear,250,2013-04-04 06:15:00
2:35 AM,28.4,14.0,55,30.19,10.0,West,9.2,-,N/A,,Clear,260,2013-04-04 06:35:00
2:55 AM,28.4,12.2,51,30.19,10.0,West,5.8,-,N/A,,Clear,270,2013-04-04 06:55:00
3:15 AM,28.4,12.2,51,30.19,10.0,WNW,3.5,-,N/A,,Clear,290,2013-04-04 07:15:00
3:35 AM,26.6,14.0,59,30.19,10.0,Calm,Calm,-,N/A,,Clear,0,2013-04-04 07:35:00
3:55 AM,26.6,15.8,64,30.19,10.0,Calm,Calm,-,N/A,,Clear,0,2013-04-04 07:55:00
4:15 AM,24.8,14.0,64,30.20,10.0,NNE,3.5,-,N/A,,Clear,30,2013-04-04 08:15:00
4:35 AM,26.6,14.0,59,30.20,10.0,NE,3.5,-,N/A,,Clear,40,2013-04-04 08:35:00
4:55 AM,24.8,15.8,69,30.21,10.0,NNE,8.1,-,N/A,,Clear,30,2013-04-04 08:55:00
5:15 AM,24.8,15.8,69,30.20,10.0,NNE,8.1,-,N/A,,Clear,20,2013-04-04 09:15:00
5:35 AM,24.8,15.8,69,30.21,10.0,NNE,6.9,-,N/A,,Clear,20,2013-04-04 09:35:00
5:55 AM,24.8,15.8,69,30.22,10.0,NNE,4.6,-,N/A,,Clear,30,2013-04-04 09:55:00
6:15 AM,24.8,15.8,69,30.24,10.0,Calm,Calm,-,N/A,,Clear,0,2013-04-04 10:15:00
6:35 AM,23.0,14.0,68,30.24,10.0,Calm,Calm,-,N/A,,Clear,0,2013-04-04 10:35:00
6:55 AM,24.8,15.8,69,30.25,10.0,Calm,Calm,-,N/A,,Clear,0,2013-04-04 10:55:00
7:15 AM,24.8,15.8,69,30.25,10.0,ENE,3.5,-,N/A,,Clear,60,2013-04-04 11:15:00
7:35 AM,26.6,15.8,64,30.27,10.0,Calm,Calm,-,N/A,,Clear,0,2013-04-04 11:35:00
7:55 AM,28.4,15.8,59,30.27,10.0,ENE,3.5,-,N/A,,Clear,70,2013-04-04 11:55:00
8:15 AM,28.4,14.0,55,30.27,10.0,East,4.6,-,N/A,,Clear,90,2013-04-04 12:15:00
8:35 AM,30.2,15.8,55,30.27,10.0,SE,3.5,-,N/A,,Clear,140,2013-04-04 12:35:00
8:55 AM,30.2,14.0,51,30.26,10.0,Calm,Calm,-,N/A,,Clear,0,2013-04-04 12:55:00
9:15 AM,30.2,12.2,47,30.25,10.0,SW,11.5,-,N/A,,Clear,230,2013-04-04 13:15:00
9:35 AM,32.0,10.4,41,30.26,10.0,WNW,4.6,-,N/A,,Clear,300,2013-04-04 13:35:00
9:55 AM,33.8,10.4,38,30.25,10.0,WSW,9.2,-,N/A,,Clear,250,2013-04-04 13:55:00
10:15 AM,33.8,8.6,35,30.25,10.0,NW,6.9,-,N/A,,Clear,320,2013-04-04 14:15:00
10:55 AM,35.6,8.6,33,30.23,10.0,WSW,8.1,-,N/A,,Clear,250,2013-04-04 14:55:00
11:15 AM,35.6,8.6,33,30.21,10.0,West,4.6,-,N/A,,Clear,260,2013-04-04 15:15:00
11:35 AM,37.4,8.6,30,30.20,10.0,Calm,Calm,-,N/A,,Clear,0,2013-04-04 15:35:00
11:55 AM,37.4,10.4,33,30.19,10.0,SW,6.9,-,N/A,,Clear,230,2013-04-04 15:55:00
12:35 PM,39.2,10.4,31,30.18,10.0,SW,11.5,17.3,N/A,,Clear,230,2013-04-04 16:35:00
12:55 PM,41.0,10.4,29,30.17,10.0,WSW,9.2,17.3,N/A,,Clear,250,2013-04-04 16:55:00
1:15 PM,42.8,12.2,29,30.16,10.0,SW,9.2,20.7,N/A,,Clear,220,2013-04-04 17:15:00
1:35 PM,42.8,14.0,31,30.15,10.0,SSW,8.1,-,N/A,,Clear,210,2013-04-04 17:35:00
1:55 PM,42.8,14.0,31,30.14,10.0,WSW,10.4,18.4,N/A,,Clear,240,2013-04-04 17:55:00
2:15 PM,44.6,15.8,31,30.13,10.0,South,10.4,16.1,N/A,,Clear,190,2013-04-04 18:15:00
2:35 PM,44.6,17.6,34,30.12,10.0,SSW,9.2,17.3,N/A,,Clear,210,2013-04-04 18:35:00
2:55 PM,46.4,17.6,32,30.10,10.0,SSW,8.1,-,N/A,,Clear,200,2013-04-04 18:55:00
3:15 PM,46.4,15.8,29,30.09,10.0,South,11.5,-,N/A,,Clear,190,2013-04-04 19:15:00
3:35 PM,46.4,15.8,29,30.08,10.0,SW,10.4,18.4,N/A,,Clear,220,2013-04-04 19:35:00
3:55 PM,46.4,15.8,29,30.06,10.0,SW,10.4,18.4,N/A,,Clear,220,2013-04-04 19:55:00
4:15 PM,48.2,15.8,27,30.05,10.0,SW,10.4,-,N/A,,Clear,220,2013-04-04 20:15:00
4:35 PM,48.2,15.8,27,30.03,10.0,SW,16.1,20.7,N/A,,Clear,220,2013-04-04 20:35:00
4:55 PM,48.2,15.8,27,30.03,10.0,WSW,12.7,21.9,N/A,,Clear,240,2013-04-04 20:55:00
5:15 PM,48.2,15.8,27,30.02,10.0,SW,10.4,23.0,N/A,,Clear,220,2013-04-04 21:15:00
5:35 PM,48.2,15.8,27,30.02,10.0,WSW,12.7,19.6,N/A,,Clear,240,2013-04-04 21:35:00
5:55 PM,48.2,15.8,27,30.02,10.0,SW,12.7,21.9,N/A,,Clear,220,2013-04-04 21:55:00
6:15 PM,48.2,15.8,27,30.03,10.0,SW,11.5,17.3,N/A,,Clear,220,2013-04-04 22:15:00
6:35 PM,48.2,15.8,27,30.02,10.0,SW,10.4,-,N/A,,Clear,220,2013-04-04 22:35:00
6:55 PM,48.2,15.8,27,30.01,10.0,SW,9.2,-,N/A,,Clear,220,2013-04-04 22:55:00
7:15 PM,46.4,15.8,29,30.01,10.0,SSW,5.8,-,N/A,,Clear,200,2013-04-04 23:15:00
7:35 PM,46.4,15.8,29,30.01,10.0,SSW,3.5,-,N/A,,Clear,210,2013-04-04 23:35:00
7:55 PM,46.4,15.8,29,30.01,10.0,SSW,4.6,-,N/A,,Clear,210,2013-04-04 23:55:00
8:15 PM,42.8,15.8,34,30.00,10.0,ESE,4.6,-,N/A,,Clear,110,2013-04-05 00:15:00
8:35 PM,39.2,17.6,42,30.00,10.0,SE,3.5,-,N/A,,Clear,130,2013-04-05 00:35:00
8:55 PM,39.2,17.6,42,30.00,10.0,ESE,5.8,-,N/A,,Clear,120,2013-04-05 00:55:00
9:15 PM,39.2,17.6,42,29.99,10.0,ESE,8.1,-,N/A,,Clear,120,2013-04-05 01:15:00
9:35 PM,37.4,17.6,45,29.99,10.0,ESE,10.4,-,N/A,,Clear,120,2013-04-05 01:35:00
9:55 PM,35.6,19.4,52,29.98,10.0,ESE,9.2,-,N/A,,Clear,120,2013-04-05 01:55:00
10:15 PM,35.6,19.4,52,29.97,10.0,ESE,10.4,-,N/A,,Clear,120,2013-04-05 02:15:00
10:35 PM,35.6,17.6,48,29.96,10.0,ESE,8.1,-,N/A,,Clear,120,2013-04-05 02:35:00
10:55 PM,35.6,19.4,52,29.96,10.0,ESE,5.8,-,N/A,,Clear,110,2013-04-05 02:55:00
11:15 PM,33.8,19.4,56,29.95,10.0,ESE,9.2,-,N/A,,Clear,120,2013-04-05 03:15:00
11:35 PM,33.8,19.4,56,29.94,10.0,ESE,10.4,-,N/A,,Clear,120,2013-04-05 03:35:00
11:55 PM,33.8,19.4,56,29.93,10.0,ESE,9.2,-,N/A,,Clear,120,2013-04-05 03:55:00